#timestamp,LO_Frequency,Hit,StdDev 
1506351615.3,286046997.7,N
1506351635.1,286046998.4,N
1506351655.9,286046996.6,N
1506351675.7,286046994.7,Y
1506351695.5,286046996.7,P
1506351715.4,286046999.2,N
1506351735.2,286047003.1,N
1506351755.0,286047005.5,N
1506351755.9,286047005.5,N
1506351775.8,286047004.4,N
1506351795.6,286047005.6,N
1506351815.4,286047003.8,N
1506351835.3,286047004.2,N
1506351855.1,286047005.6,N
1506351856.0,286047005.6,N
1506351875.8,286047005.4,N
1506351895.7,286047007.4,N
1506351915.5,286047001.6,N
1506351935.3,286046999.9,N
1506351955.1,286047001.1,N
1506351975.9,286047002.6,N
1506351995.7,286047004.3,N
1506352015.5,286047007.4,N
1506352035.4,286047003.0,N
1506352055.2,286047002.5,N
1506352075.0,286046999.7,N
1506352075.9,286046999.7,N
1506352095.8,286047000.3,N
1506352115.6,286046998.5,N
1506352135.4,286047001.5,N
1506352155.3,286047001.3,N
1506352175.1,286047003.3,N
1506352176.0,286047003.3,N
1506352195.8,286047007.5,N
1506352215.7,286047003.0,N
1506352235.5,286047005.5,N
1506352255.3,286047003.1,N
1506352275.1,286047005.0,N
1506352295.9,286047008.6,Y
1506352315.7,286047002.1,P
1506352335.5,286046998.5,N
1506352355.4,286046998.5,N
1506352375.2,286046997.8,N
1506352395.0,286046997.9,N
1506352395.9,286046997.9,N
1506352415.8,286046996.5,N
1506352435.6,286047001.0,N
1506352455.4,286046996.7,N
1506352475.3,286046996.6,N
1506352495.1,286046998.5,N
1506352496.0,286046998.5,N
1506352515.8,286046999.9,N
1506352535.7,286046998.3,N
1506352555.5,286047000.6,N
1506352575.3,286046998.8,N
1506352595.2,286046996.5,N
1506352615.9,286047001.2,N
1506352635.7,286047001.4,N
1506352655.6,286047000.0,N
1506352675.4,286046997.7,N
1506352695.2,286046996.3,N
1506352715.0,286046996.3,N
1506352716.0,286046996.3,N
1506352735.8,286046999.5,N
1506352755.6,286047001.0,N
1506352775.4,286046999.0,N
1506352795.3,286046999.6,N
1506352815.1,286046996.8,N
1506352835.8,286046998.3,N
1506352855.7,286046997.7,N
1506352875.5,286046995.1,Y
1506352895.3,286046998.7,P
1506352915.2,286046997.0,P
1506352935.9,286046996.7,P
1506352955.7,286046997.7,N
1506352975.6,286046996.8,Y
1506352995.4,286047000.7,P
1506353015.2,286046998.7,N
1506353035.1,286046999.4,N
1506353036.0,286046999.4,N
1506353055.8,286046999.0,N
1506353075.6,286046999.8,N
1506353095.5,286046998.5,N
1506353115.3,286047003.0,Y
1506353135.1,286047005.8,P
1506353155.9,286047003.3,N
1506353175.7,286047006.1,N
1506353195.5,286047003.3,N
1506353215.4,286047001.8,N
1506353235.2,286047000.1,N
1506353255.0,286047005.0,N
1506353255.9,286047005.0,N
1506353275.8,286047008.2,Y
1506353295.6,286047004.6,P
1506353315.4,286047003.0,P
1506353335.3,286047000.7,N
1506353355.1,286047001.3,N
1506353356.0,286047001.3,N
1506353375.8,286047001.7,N
1506353395.7,286047004.2,Y
1506353415.5,286046997.7,P
1506353435.3,286046999.9,N
1506353455.2,286046995.8,N
1506353475.9,286046997.6,N
1506353495.7,286046997.3,N
1506353515.5,286046995.6,N
1506353535.4,286046990.5,Y
1506353555.2,286046997.2,P
1506353575.0,286047001.0,N
1506353576.0,286047001.0,N
1506353595.8,286046998.2,N
1506353615.6,286046999.1,N
1506353635.5,286046999.5,N
1506353655.3,286047000.5,N
1506353675.1,286047001.5,N
1506353695.8,286047000.1,N
1506353715.7,286046998.4,N
1506353735.5,286046996.7,N
1506353755.3,286046998.9,N
1506353775.2,286046997.2,N
1506353795.9,286046996.9,N
1506353815.7,286046996.6,N
1506353835.6,286046998.9,N
1506353855.4,286047002.3,N
1506353875.2,286047000.6,N
1506353895.1,286047002.4,N
1506353896.0,286047002.4,N
1506353915.8,286046999.6,N
1506353935.6,286046995.0,N
1506353955.5,286046995.2,N
1506353975.3,286046999.1,N
1506353995.1,286046996.7,N
1506354015.8,286046996.2,N
1506354035.7,286046991.9,Y
1506354055.5,286046994.8,P
1506354075.3,286046991.9,P
1506354095.2,286046992.5,N
1506354115.0,286046993.6,N
1506354115.9,286046993.6,N
1506354135.7,286046995.8,N
1506354155.6,286046995.4,N
1506354175.4,286046998.8,N
1506354195.2,286046995.6,N
1506354215.1,286046997.0,N
1506354216.0,286046997.0,N
1506354235.8,286047000.3,N
1506354255.6,286046996.7,N
1506354275.5,286046996.3,N
1506354295.3,286046999.0,N
1506354315.1,286046999.6,N
1506354335.9,286046995.0,N
1506354355.7,286046998.0,N
1506354375.5,286046999.8,N
1506354395.4,286046998.5,N
1506354415.2,286047001.0,N
1506354435.0,286047002.7,N
1506354435.9,286047002.7,N
1506354455.7,286047001.9,N
1506354475.6,286047002.9,N
1506354495.4,286046998.7,N
1506354515.2,286047000.6,N
1506354535.1,286047002.3,N
1506354536.0,286047002.3,N
1506354555.8,286047000.3,N
1506354575.6,286047000.8,N
1506354595.5,286046998.6,N
1506354615.3,286046998.5,N
1506354635.1,286046998.7,N
1506354655.9,286046999.5,N
1506354675.7,286047002.5,N
1506354695.5,286047001.4,N
1506354715.4,286047004.3,N
1506354735.2,286047001.9,N
1506354755.0,286046998.9,N
1506354755.9,286046998.9,N
1506354775.8,286047001.6,N
1506354795.6,286047001.4,N
1506354815.4,286047003.5,N
1506354835.2,286047003.5,N
1506354855.1,286047006.0,N
1506354856.0,286047006.0,N
1506354875.8,286047004.4,N
1506354895.6,286047003.2,N
1506354915.5,286047007.5,Y
1506354935.3,286047000.2,P
1506354955.1,286046999.9,N
1506354975.9,286046998.5,N
1506354995.7,286047005.9,Y
1506355015.5,286047002.4,P
1506355035.4,286047000.2,N
1506355055.2,286047002.5,N
1506355075.0,286046999.2,N
1506355075.9,286046999.2,N
1506355095.8,286047000.8,N
1506355115.6,286046998.7,N
1506355135.4,286046996.8,N
1506355155.3,286046995.3,N
1506355175.1,286046995.1,N
1506355195.8,286046997.7,N
